FMN 1 (43192 NORAD) Tracking and Keplerian Element Data

This shows tracking and keplerian element data for the satellite.

Feedback or suggestion? Click here.




ElementValue
Catalog43192
NameFMN 1
Epoch Orbit6269
Epoch Day80.23900489
Epoch Year2019
RAAN209.2202
Inclination97.3843
Eccentricity0.0014869
Argument of Perigee246.8228
Mean Anonmoly113.1446
Mean Motion15.23881399
Decay Rate2.348E-05
L11 43192U 18015A 19080.23900489 .00002348 00000-0 99996-4 0 9990
L22 43192 97.3843 209.2202 0014869 246.8228 113.1446 15.23881399 62694

Live tracking and technical data element details for FMN 1 (NORAD 43192). FMN 1 can be tracked NOW for your location showing map with azimuth and elevation plus other details from your city location.

Track the satellite on the map from your city or location and see movement details for azimuth, elevation, latitude, longitude, range, height, and movement on the map or in text.







IsCatalogInMostPopularTable: catalog: 43192, numindb: 263
Update: records affected: 1



GetName: 43192 FMN 1

Hit Count: updated at: Sun, 24 Mar 2019 08:57:34 GMT